TimeEDT,TemperatureF,Dew PointF,Humidity,Sea Level PressureIn,VisibilityMPH,Wind Direction,Wind SpeedMPH,Gust SpeedMPH,PrecipitationIn,Events,Conditions,WindDirDegrees,DateUTC
12:15 AM,71.6,69.8,94,29.91,2.5,Calm,Calm,-,0.01,,Scattered Clouds,0,2013-08-27 04:15:00
12:35 AM,73.4,69.8,88,29.91,10.0,Calm,Calm,-,0.01,,Mostly Cloudy,0,2013-08-27 04:35:00
12:55 AM,73.4,68.0,83,29.90,7.0,Calm,Calm,-,N/A,,Mostly Cloudy,0,2013-08-27 04:55:00
1:15 AM,73.4,69.8,88,29.90,7.0,Calm,Calm,-,N/A,,Mostly Cloudy,0,2013-08-27 05:15:00
1:35 AM,73.4,68.0,83,29.89,7.0,Calm,Calm,-,N/A,Rain,Light Rain,0,2013-08-27 05:35:00
1:55 AM,71.6,68.0,88,29.88,7.0,SSW,3.5,-,N/A,,Mostly Cloudy,210,2013-08-27 05:55:00
2:15 AM,73.4,68.0,83,29.88,7.0,Calm,Calm,-,N/A,,Overcast,0,2013-08-27 06:15:00
2:35 AM,71.6,68.0,88,29.87,7.0,SSW,3.5,-,N/A,,Overcast,210,2013-08-27 06:35:00
2:55 AM,73.4,68.0,83,29.87,7.0,SW,3.5,-,N/A,Rain,Rain,230,2013-08-27 06:55:00
3:15 AM,71.6,68.0,88,29.86,7.0,SW,3.5,-,N/A,,Overcast,220,2013-08-27 07:15:00
3:35 AM,73.4,68.0,83,29.85,7.0,SW,5.8,-,N/A,,Mostly Cloudy,220,2013-08-27 07:35:00
3:55 AM,73.4,68.0,83,29.85,10.0,WSW,5.8,-,N/A,,Mostly Cloudy,250,2013-08-27 07:55:00
4:15 AM,71.6,68.0,88,29.84,10.0,WSW,5.8,-,N/A,,Scattered Clouds,240,2013-08-27 08:15:00
4:35 AM,71.6,68.0,88,29.84,10.0,WSW,5.8,-,N/A,,Mostly Cloudy,250,2013-08-27 08:35:00
4:55 AM,73.4,68.0,83,29.84,10.0,WSW,8.1,-,N/A,,Overcast,250,2013-08-27 08:55:00
5:15 AM,73.4,68.0,83,29.84,10.0,WSW,4.6,-,N/A,,Overcast,240,2013-08-27 09:15:00
5:35 AM,73.4,68.0,83,29.84,10.0,WSW,3.5,-,N/A,,Overcast,250,2013-08-27 09:35:00
5:55 AM,73.4,68.0,83,29.85,10.0,WNW,5.8,-,N/A,,Overcast,300,2013-08-27 09:55:00
6:15 AM,73.4,66.2,78,29.85,10.0,NW,4.6,-,N/A,,Overcast,310,2013-08-27 10:15:00
6:35 AM,73.4,66.2,78,29.86,10.0,NW,3.5,-,N/A,,Mostly Cloudy,320,2013-08-27 10:35:00
6:45 AM,71.6,66.2,83,29.86,10.0,Calm,Calm,-,N/A,,Mostly Cloudy,0,2013-08-27 10:45:00
7:45 AM,73.4,68.0,83,29.87,10.0,NW,4.6,-,N/A,,Mostly Cloudy,320,2013-08-27 11:45:00
8:45 AM,75.2,66.2,73,29.89,10.0,North,9.2,16.1,N/A,,Mostly Cloudy,350,2013-08-27 12:45:00
9:45 AM,77.0,66.2,69,29.89,10.0,North,8.1,17.3,N/A,,Scattered Clouds,350,2013-08-27 13:45:00
10:45 AM,78.8,66.2,65,29.90,10.0,NNE,10.4,18.4,N/A,,Scattered Clouds,30,2013-08-27 14:45:00
11:45 AM,80.6,68.0,65,29.90,15.0,North,9.2,15.0,N/A,,Mostly Cloudy,360,2013-08-27 15:45:00
1:45 PM,82.4,66.2,58,29.90,10.0,North,5.8,11.5,N/A,,Scattered Clouds,350,2013-08-27 17:45:00
2:45 PM,84.2,68.0,58,29.88,10.0,NNE,3.5,-,N/A,,Scattered Clouds,30,2013-08-27 18:45:00
3:45 PM,84.2,66.2,55,29.86,10.0,North,4.6,-,N/A,,Scattered Clouds,350,2013-08-27 19:45:00
4:45 PM,86.0,66.2,51,29.86,10.0,Calm,Calm,-,N/A,,Scattered Clouds,0,2013-08-27 20:45:00
5:45 PM,84.2,66.2,55,29.89,10.0,NW,5.8,-,N/A,,Scattered Clouds,320,2013-08-27 21:45:00
8:45 PM,71.6,68.0,88,29.89,10.0,Calm,Calm,-,N/A,,Scattered Clouds,0,2013-08-28 00:45:00
10:55 PM,73.4,68.0,83,29.92,10.0,Calm,Calm,-,N/A,,Mostly Cloudy,0,2013-08-28 02:55:00
11:15 PM,71.6,68.0,88,29.91,10.0,Calm,Calm,-,N/A,,Clear,0,2013-08-28 03:15:00
11:35 PM,69.8,66.2,88,29.92,10.0,Calm,Calm,-,N/A,,Clear,0,2013-08-28 03:35:00
11:55 PM,69.8,66.2,88,29.91,7.0,Calm,Calm,-,N/A,,Clear,0,2013-08-28 03:55:00